Main page
METAR-TAF:

METAR-TAF

Airports :

Milton, Massachusetts, United States

latitude: 42-12-44N, longitude: 071-06-53W, elevation: 630 ft

Current weather observation

The report was made 29 minutes ago, at 23:51 UTC
Calm wind
Temperature 36°F
Humidity 100%
Pressure 29.98 in. Hg

METAR: KMQE 182351Z AUTO 00000KT 02/02 A2998 RMK AO1 SLP170 P0007 60019 T00220017 10022 20006 56045

Time: 19:20 (00:20 UTC)


TAF: missing

Weather observations and forecasts of more than 4000 airports (METAR and TAF reports).

The available stations are represented by yellow and red dots on the map.

Hover mouse over dot to see the name of the station.

Then click to see weather observations and forecasts.

To change the map : click on the green buttons with a black cross to zoom in, on the green button with a dash to zoom out, or on the green arrows for adjacent maps.


METAR-TAF: